{"data":{"norad_id":66400,"epoch":"2026-09-20T14:05:39.924960Z","epoch_age_seconds":85873,"freshness":"FRESH","line1":"1 66400U 25257W   26263.58726765  .00021324  00000+0  64098-3 0  9993","line2":"2 66400  53.1602  27.4550 0001791  27.7553 332.3545 15.34373016 49635","mean_motion":15.34373016,"eccentricity":0.0001791,"inclination_deg":53.1602,"raan_deg":27.455,"arg_perigee_deg":27.7553,"mean_anomaly_deg":332.3545,"bstar":0.00064098,"rev_number":4963,"period_min":93.849408519577,"perigee_km":461.55823466567,"apogee_km":464.00865236854,"semimajor_km":6840.9204435171,"source":"CELESTRAK","updated_at":"2026-09-21T09:00:35.889170Z"}}